DMSP 5D-2 F13 DEB, 42265

Orbit data source: Space-Track

DMSP 5D-2 F13 DEB, 42265 is space debris in SSO originally from a launch on Fri, 24 Mar 1995 UTC launched from the Air Force Western Test Range (AFWTR). Debris objects in space refer to the collection of defunct objects orbiting the Earth. Examples of debris include non-operational satellites, rocket bodies, and fragments generated from explosions, collisions, or faulty payload assembly.

Loading next visibility...
Identifier
42265, 1995-015GF
Orbit
SSO
Country
Flag of USUS
Related business
Manufacturer
Unknown
Mission
Spacecraft
Bus & Motor
Unknown
Mass
Unknown
Launch date (UTC)
1995-03-24 (31 years ago)
Launch vehicle
Unknown
Launch site
Air Force Western Test Range (AFWTR)
Object type
Payload
Rocket body
Debris
Shape & HBR
Unknown shape, 0.1 m
Radar Cross Section
Small (<0.1 m²)

Expand to show TLE details & history
Last TLE update: 22 hours ago

TLE from 22 hours ago
0 DMSP 5D-2 F13 DEB
1 42265U 95015GF  26105.35374897  .00002347  00000-0  78343-3 0  9993
2 42265  98.6774 143.6803 0005357 177.9751 182.1458 14.38461441539578
Epoch: 2026-04-15T08:29Z
TLE epoch observation values (Epoch: 2026-04-15T08:29:23.911Z)
Latitude
-0.00003°
Longitude
172.81382°
Altitude
770.351 km
Speed
7.467 km/s
True Right ascension
09h 34m 43s
True Declination
0° 00' 00"
Sunlit
Object was in full shadow at epoch
Visualization orbit readout
Latitude
Unknown
Longitude
Unknown
Altitude
Unknown
Speed
Unknown
Apparent Right ascension
Unknown
Apparent Declination
Unknown
Sunlit
N/A
Visualization observer readout
Local Sidereal Time
13:34:26
Azimuth
Unknown
Elevation
Unknown
Doppler factor
Unknown
Orbital elements
Apogee altitude
764.543 km
Perigee altitude
756.894 km
Semi-major axis
7,138.856 km
Eccentricity
0.00054
Inclination
98.6774°
RAAN
143.6803°
Arg. of periapsis
177.9751°
True anomaly
182.1435°
Mean anomaly
182.1458°
Eccentric anomaly
182.14465°
Mean motion
3.59832 °/min
Orbital period
100.05 mins
BSTAR
0.00078343
Loading maneuver chart data...
Computing Atmospheric mass density...

Documentation

Showing up to 5 results
|